EN

Hourly Weather Nuevo Leon

Today, 14 May, Friday

Time Temperature Precipitation Wind Pressure Humidity
00:00 +23°C° 0 mm 4 mps 748 mmHg 72%
01:00 +23°C° 0 mm 4 mps 748 mmHg 76%
02:00 +22°C° 0 mm 4 mps 747 mmHg 79%
03:00 +22°C° 0 mm 3 mps 747 mmHg 80%
04:00 +22°C° 0 mm 3 mps 748 mmHg 81%
05:00 +23°C° 0 mm 2 mps 748 mmHg 82%
06:00 +23°C° 0 mm 2 mps 748 mmHg 80%
07:00 +24°C° 0 mm 2 mps 748 mmHg 77%
08:00 +24°C° 0 mm 2 mps 748 mmHg 75%
09:00 +25°C° 0 mm 3 mps 748 mmHg 69%
10:00 +27°C° 0 mm 3 mps 748 mmHg 63%
11:00 +28°C° 0 mm 4 mps 748 mmHg 57%
12:00 +29°C° 0 mm 4 mps 747 mmHg 54%
13:00 +30°C° 0 mm 4 mps 746 mmHg 51%
14:00 +30°C° 0 mm 5 mps 746 mmHg 48%
15:00 +30°C° 0 mm 5 mps 745 mmHg 50%
16:00 +30°C° 0 mm 6 mps 745 mmHg 51%
17:00 +30°C° 0 mm 7 mps 745 mmHg 53%
18:00 +29°C° 0 mm 7 mps 745 mmHg 58%
19:00 +28°C° 0 mm 8 mps 745 mmHg 62%
20:00 +27°C° 0 mm 8 mps 746 mmHg 67%
21:00 +26°C° 0 mm 7 mps 746 mmHg 72%
22:00 +24°C° 0 mm 6 mps 746 mmHg 77%
23:00 +25°C° 0 mm 5 mps 746 mmHg 83%

Tomorrow, 15 May, Saturday

Time Temperature Precipitation Wind Pressure Humidity
00:00 +25°C° 0 mm 5 mps 745 mmHg 84%
01:00 +23°C° 0 mm 5 mps 745 mmHg 86%
02:00 +23°C° 0 mm 4 mps 744 mmHg 88%
03:00 +24°C° 0 mm 3 mps 744 mmHg 89%
04:00 +24°C° 0 mm 3 mps 744 mmHg 90%
05:00 +24°C° 0 mm 2 mps 744 mmHg 91%
06:00 +25°C° 0.1 mm 2 mps 745 mmHg 85%
07:00 +26°C° 0.1 mm 3 mps 745 mmHg 79%
08:00 +27°C° 0.1 mm 3 mps 745 mmHg 73%
09:00 +28°C° 0 mm 4 mps 745 mmHg 67%
10:00 +30°C° 0 mm 4 mps 744 mmHg 60%
11:00 +32°C° 0 mm 4 mps 744 mmHg 54%
12:00 +34°C° 0 mm 5 mps 743 mmHg 49%
13:00 +35°C° 0 mm 5 mps 742 mmHg 43%
14:00 +37°C° 0 mm 5 mps 741 mmHg 38%
15:00 +36°C° 0 mm 6 mps 741 mmHg 42%
16:00 +35°C° 0 mm 8 mps 741 mmHg 47%
17:00 +33°C° 0 mm 9 mps 741 mmHg 51%
18:00 +32°C° 0.3 mm 9 mps 741 mmHg 58%
19:00 +29°C° 0.3 mm 8 mps 742 mmHg 66%
20:00 +27°C° 0.3 mm 8 mps 742 mmHg 73%
21:00 +27°C° 0.1 mm 7 mps 742 mmHg 76%
22:00 +27°C° 0.1 mm 6 mps 742 mmHg 78%
23:00 +26°C° 0.1 mm 5 mps 742 mmHg 81%

Day after tomorrow, 16 May, Sunday

Time Temperature Precipitation Wind Pressure Humidity
00:00 +26°C° 0 mm 5 mps 742 mmHg 82%
01:00 +26°C° 0 mm 4 mps 741 mmHg 84%
02:00 +25°C° 0 mm 4 mps 741 mmHg 85%
03:00 +25°C° 0 mm 3 mps 741 mmHg 86%
04:00 +25°C° 0 mm 3 mps 741 mmHg 86%
05:00 +25°C° 0 mm 2 mps 742 mmHg 87%
06:00 +26°C° 0 mm 2 mps 742 mmHg 81%
07:00 +27°C° 0 mm 3 mps 742 mmHg 75%
08:00 +28°C° 0 mm 3 mps 743 mmHg 69%
09:00 +30°C° 0 mm 4 mps 742 mmHg 62%
10:00 +33°C° 0 mm 4 mps 742 mmHg 54%
11:00 +35°C° 0 mm 4 mps 741 mmHg 47%
12:00 +36°C° 0 mm 4 mps 741 mmHg 43%
13:00 +37°C° 0 mm 3 mps 740 mmHg 39%
14:00 +38°C° 0 mm 3 mps 739 mmHg 35%
15:00 +38°C° 0 mm 3 mps 739 mmHg 35%
16:00 +38°C° 0 mm 4 mps 739 mmHg 35%
17:00 +38°C° 0 mm 4 mps 738 mmHg 35%
18:00 +36°C° 0.8 mm 4 mps 739 mmHg 45%
19:00 +33°C° 0.8 mm 5 mps 740 mmHg 56%
20:00 +29°C° 0.8 mm 5 mps 741 mmHg 66%
21:00 +29°C° 0 mm 4 mps 741 mmHg 67%
22:00 +28°C° 0 mm 4 mps 741 mmHg 68%
23:00 +27°C° 0 mm 3 mps 740 mmHg 69%

17 May, Monday

Time Temperature Precipitation Wind Pressure Humidity
00:00 +27°C° 0 mm 3 mps 740 mmHg 72%
01:00 +26°C° 0 mm 4 mps 740 mmHg 74%
02:00 +26°C° 0 mm 4 mps 740 mmHg 76%
03:00 +26°C° 0 mm 3 mps 740 mmHg 78%
04:00 +25°C° 0 mm 3 mps 740 mmHg 79%
05:00 +25°C° 0 mm 2 mps 740 mmHg 81%
06:00 +27°C° 0 mm 3 mps 740 mmHg 74%
07:00 +28°C° 0 mm 3 mps 740 mmHg 67%
08:00 +30°C° 0 mm 4 mps 741 mmHg 60%
09:00 +33°C° 0 mm 4 mps 740 mmHg 53%
10:00 +35°C° 0 mm 4 mps 740 mmHg 46%
11:00 +37°C° 0 mm 4 mps 740 mmHg 39%
12:00 +38°C° 0 mm 4 mps 739 mmHg 36%
13:00 +40°C° 0 mm 4 mps 738 mmHg 32%
14:00 +42°C° 0 mm 4 mps 738 mmHg 29%
15:00 +41°C° 0 mm 5 mps 737 mmHg 29%
16:00 +41°C° 0 mm 5 mps 737 mmHg 29%
17:00 +41°C° 0 mm 6 mps 737 mmHg 29%
18:00 +38°C° 0 mm 7 mps 737 mmHg 42%
19:00 +34°C° 0 mm 8 mps 738 mmHg 54%
20:00 +31°C° 0 mm 9 mps 738 mmHg 66%
21:00 +29°C° 0 mm 9 mps 739 mmHg 68%
22:00 +29°C° 0 mm 8 mps 739 mmHg 70%
23:00 +29°C° 0 mm 8 mps 739 mmHg 71%

18 May, Tuesday

Time Temperature Precipitation Wind Pressure Humidity
00:00 +28°C° 0 mm 8 mps 738 mmHg 72%
01:00 +28°C° 0 mm 8 mps 738 mmHg 73%
02:00 +28°C° 0 mm 9 mps 737 mmHg 74%
03:00 +28°C° 0 mm 7 mps 737 mmHg 74%
04:00 +28°C° 0 mm 4 mps 738 mmHg 75%
05:00 +27°C° 0 mm 2 mps 738 mmHg 76%
06:00 +29°C° 0 mm 3 mps 738 mmHg 69%
07:00 +30°C° 0 mm 4 mps 739 mmHg 63%
08:00 +33°C° 0 mm 5 mps 739 mmHg 56%
09:00 +35°C° 0 mm 4 mps 739 mmHg 49%
10:00 +37°C° 0 mm 4 mps 738 mmHg 42%
11:00 +40°C° 0 mm 4 mps 738 mmHg 35%
12:00 +40°C° 0 mm 3 mps 737 mmHg 32%
13:00 +42°C° 0 mm 3 mps 737 mmHg 29%
14:00 +43°C° 0 mm 3 mps 736 mmHg 26%
15:00 +42°C° 0 mm 4 mps 735 mmHg 26%
16:00 +42°C° 0 mm 4 mps 735 mmHg 26%
17:00 +42°C° 0 mm 4 mps 734 mmHg 26%
18:00 +39°C° 0 mm 6 mps 735 mmHg 37%
19:00 +35°C° 0 mm 7 mps 736 mmHg 49%
20:00 +32°C° 0 mm 9 mps 736 mmHg 61%
21:00 +32°C° 0 mm 8 mps 737 mmHg 64%
22:00 +30°C° 0 mm 7 mps 737 mmHg 68%
23:00 +29°C° 0 mm 6 mps 737 mmHg 71%

19 May, Wednesday

Time Temperature Precipitation Wind Pressure Humidity
00:00 +29°C° 0 mm 5 mps 737 mmHg 72%
01:00 +29°C° 0 mm 4 mps 737 mmHg 72%
02:00 +29°C° 0 mm 3 mps 737 mmHg 72%
03:00 +28°C° 0 mm 3 mps 738 mmHg 75%
04:00 +28°C° 0 mm 3 mps 738 mmHg 78%
05:00 +27°C° 0 mm 3 mps 738 mmHg 81%
06:00 +29°C° 0.1 mm 3 mps 739 mmHg 75%
07:00 +30°C° 0.1 mm 3 mps 739 mmHg 70%
08:00 +31°C° 0.1 mm 3 mps 739 mmHg 64%
09:00 +32°C° 0 mm 2 mps 739 mmHg 59%
10:00 +34°C° 0 mm 2 mps 739 mmHg 55%
11:00 +35°C° 0 mm 2 mps 739 mmHg 50%
12:00 +37°C° 0 mm 2 mps 738 mmHg 47%
13:00 +38°C° 0 mm 2 mps 738 mmHg 44%
14:00 +39°C° 0 mm 2 mps 737 mmHg 41%
15:00 +39°C° 0.2 mm 5 mps 737 mmHg 45%
16:00 +36°C° 0.2 mm 7 mps 736 mmHg 49%
17:00 +36°C° 0.2 mm 10 mps 736 mmHg 53%
18:00 +32°C° 6.7 mm 8 mps 737 mmHg 63%
19:00 +28°C° 6.7 mm 7 mps 738 mmHg 72%
20:00 +25°C° 6.7 mm 5 mps 739 mmHg 81%
21:00 +25°C° 0.7 mm 5 mps 740 mmHg 80%
22:00 +25°C° 0.7 mm 5 mps 740 mmHg 79%
23:00 +25°C° 0.7 mm 5 mps 740 mmHg 78%
Show more

We Need Your Consent

Meteoprog and our Service Providers may store and access personal data such as cookies, device identifiers or other similar technologies on your device and process such data to personalise content and ads, as well as provide social media features and to analyse the traffic.

  • Store and/or access information on your device

    Cookies, device identifiers or other information can be stored or accessed on your device for the purposes indicated above.

  • Personalised ads and content, ad and content measurement, audience insights, and products development

    Ads and content can be personalised based on a profile. More data can be added to better personalise ads and content. Ad and content performance can be measured. Insights about the audience who saw the ads and content can be derived. Such data can be used to develop or improve user’s experience, systems and software.

By clicking ‘I Agree’ you will allow the use of indicated cookies, device identifiers, web beacons or other similar technologies. Your settings can be changed in the browser on your device.

For certain purposes, legitimate interests may be relied on, rather than consent. You can read more about this in our Privacy and Cookie Policy.